Year,Month,Day,Hour,Minute,Value (Times are PST for temperature in C)
2010,07,18,00,00,12.80
2010,07,18,00,01,12.80
2010,07,18,00,02,12.80
2010,07,18,00,03,12.80
2010,07,18,00,04,12.70
2010,07,18,00,05,12.70
2010,07,18,00,06,12.70
2010,07,18,00,07,12.70
2010,07,18,00,08,12.70
2010,07,18,00,09,12.70
2010,07,18,00,10,12.70
2010,07,18,00,11,12.70
2010,07,18,00,12,12.70
2010,07,18,00,13,12.70
2010,07,18,00,14,12.70
2010,07,18,00,15,12.60
2010,07,18,00,16,12.60
2010,07,18,00,17,12.60
2010,07,18,00,18,12.60
2010,07,18,00,19,12.60
2010,07,18,00,20,12.50
2010,07,18,00,21,12.50
2010,07,18,00,22,12.50
2010,07,18,00,23,12.40
2010,07,18,00,24,12.40
2010,07,18,00,25,12.40
2010,07,18,00,26,12.40
2010,07,18,00,27,12.40
2010,07,18,00,28,12.40
2010,07,18,00,29,12.30
2010,07,18,00,30,12.30
2010,07,18,00,31,12.30
2010,07,18,00,32,12.30
2010,07,18,00,33,12.30
2010,07,18,00,34,12.30
2010,07,18,00,35,12.30
2010,07,18,00,36,12.30
2010,07,18,00,37,12.30
2010,07,18,00,38,12.30
2010,07,18,00,39,12.30
2010,07,18,00,40,12.30
2010,07,18,00,41,12.30
2010,07,18,00,42,12.30
2010,07,18,00,43,12.30
2010,07,18,00,44,12.20
2010,07,18,00,45,12.20
2010,07,18,00,46,12.20
2010,07,18,00,47,12.20
2010,07,18,00,48,12.20
2010,07,18,00,49,12.20
2010,07,18,00,50,12.20
2010,07,18,00,51,12.20
2010,07,18,00,52,12.20
2010,07,18,00,53,12.20
2010,07,18,00,54,12.20
2010,07,18,00,55,12.20
2010,07,18,00,56,12.20
2010,07,18,00,57,12.10
2010,07,18,00,58,12.10
2010,07,18,00,59,12.10
2010,07,18,01,00,12.10
2010,07,18,01,01,12.10
2010,07,18,01,02,12.10
2010,07,18,01,03,12.10
2010,07,18,01,04,12.10
2010,07,18,01,05,12.10
2010,07,18,01,06,12.10
2010,07,18,01,07,12.10
2010,07,18,01,08,12.10
2010,07,18,01,09,12.10
2010,07,18,01,10,12.10
2010,07,18,01,11,12.10
2010,07,18,01,12,12.10
2010,07,18,01,13,12.10
2010,07,18,01,14,12.10
2010,07,18,01,15,12.10
2010,07,18,01,16,12.00
2010,07,18,01,17,12.00
2010,07,18,01,18,12.00
2010,07,18,01,19,12.00
2010,07,18,01,20,12.00
2010,07,18,01,21,12.00
2010,07,18,01,22,12.00
2010,07,18,01,23,12.00
2010,07,18,01,24,12.00
2010,07,18,01,25,12.00
2010,07,18,01,26,11.90
2010,07,18,01,27,11.90
2010,07,18,01,28,11.90
2010,07,18,01,29,11.90
2010,07,18,01,30,11.90
2010,07,18,01,31,11.90
2010,07,18,01,32,11.90
2010,07,18,01,33,11.90
2010,07,18,01,34,11.90
2010,07,18,01,35,11.90
2010,07,18,01,36,11.90
2010,07,18,01,37,11.90
2010,07,18,01,38,11.90
2010,07,18,01,39,11.90
2010,07,18,01,40,11.90
2010,07,18,01,41,11.90
2010,07,18,01,42,11.90
2010,07,18,01,43,11.90
2010,07,18,01,44,11.90
2010,07,18,01,45,11.90
2010,07,18,01,46,11.90
2010,07,18,01,47,11.90
2010,07,18,01,48,11.90
2010,07,18,01,49,11.90
2010,07,18,01,50,11.90
2010,07,18,01,51,11.90
2010,07,18,01,52,11.90
2010,07,18,01,53,11.90
2010,07,18,01,54,11.90
2010,07,18,01,55,11.90
2010,07,18,01,56,11.90
2010,07,18,01,57,11.90
2010,07,18,01,58,11.90
2010,07,18,01,59,11.90
2010,07,18,02,00,11.90
2010,07,18,02,01,11.90
2010,07,18,02,02,11.90
2010,07,18,02,03,11.90
2010,07,18,02,04,11.90
2010,07,18,02,05,11.90
2010,07,18,02,06,11.90
2010,07,18,02,07,11.90
2010,07,18,02,08,11.90
2010,07,18,02,09,11.90
2010,07,18,02,10,11.90
2010,07,18,02,11,11.90
2010,07,18,02,12,11.90
2010,07,18,02,13,11.90
2010,07,18,02,14,11.90
2010,07,18,02,15,11.90
2010,07,18,02,16,11.90
2010,07,18,02,17,11.90
2010,07,18,02,18,11.90
2010,07,18,02,19,11.90
2010,07,18,02,20,11.90
2010,07,18,02,21,11.80
2010,07,18,02,22,11.80
2010,07,18,02,23,11.80
2010,07,18,02,24,11.80
2010,07,18,02,25,11.70
2010,07,18,02,26,11.70
2010,07,18,02,27,11.70
2010,07,18,02,28,11.70
2010,07,18,02,29,11.60
2010,07,18,02,30,11.60
2010,07,18,02,31,11.60
2010,07,18,02,32,11.60
2010,07,18,02,33,11.60
2010,07,18,02,34,11.60
2010,07,18,02,35,11.60
2010,07,18,02,36,11.60
2010,07,18,02,37,11.60
2010,07,18,02,38,11.60
2010,07,18,02,39,11.60
2010,07,18,02,40,11.60
2010,07,18,02,41,11.60
2010,07,18,02,42,11.60
2010,07,18,02,43,11.60
2010,07,18,02,44,11.60
2010,07,18,02,45,11.60
2010,07,18,02,46,11.60
2010,07,18,02,47,11.60
2010,07,18,02,48,11.60
2010,07,18,02,49,11.60
2010,07,18,02,50,11.60
2010,07,18,02,51,11.60
2010,07,18,02,52,11.60
2010,07,18,02,53,11.60
2010,07,18,02,54,11.60
2010,07,18,02,55,11.60
2010,07,18,02,56,11.60
2010,07,18,02,57,11.60
2010,07,18,02,58,11.60
2010,07,18,02,59,11.60
2010,07,18,03,00,11.60
2010,07,18,03,01,11.50
2010,07,18,03,02,11.50
2010,07,18,03,03,11.50
2010,07,18,03,04,11.50
2010,07,18,03,05,11.50
2010,07,18,03,06,11.50
2010,07,18,03,07,11.50
2010,07,18,03,08,11.50
2010,07,18,03,09,11.50
2010,07,18,03,10,11.50
2010,07,18,03,11,11.50
2010,07,18,03,12,11.50
2010,07,18,03,13,11.50
2010,07,18,03,14,11.50
2010,07,18,03,15,11.50
2010,07,18,03,16,11.50
2010,07,18,03,17,11.50
2010,07,18,03,18,11.50
2010,07,18,03,19,11.50
2010,07,18,03,20,11.50
2010,07,18,03,21,11.40
2010,07,18,03,22,11.50
2010,07,18,03,23,11.50
2010,07,18,03,24,11.50
2010,07,18,03,25,11.40
2010,07,18,03,26,11.40
2010,07,18,03,27,11.40
2010,07,18,03,28,11.40
2010,07,18,03,29,11.40
2010,07,18,03,30,11.40
2010,07,18,03,31,11.40
2010,07,18,03,32,11.40
2010,07,18,03,33,11.40
2010,07,18,03,34,11.30
2010,07,18,03,35,11.30
2010,07,18,03,36,11.30
2010,07,18,03,37,11.30
2010,07,18,03,38,11.30
2010,07,18,03,39,11.30
2010,07,18,03,40,11.30
2010,07,18,03,41,11.30
2010,07,18,03,42,11.30
2010,07,18,03,43,11.30
2010,07,18,03,44,11.30
2010,07,18,03,45,11.30
2010,07,18,03,49,11.30
2010,07,18,03,50,11.30
2010,07,18,03,51,11.30
2010,07,18,03,52,11.30
2010,07,18,03,53,11.30
2010,07,18,03,54,11.20
2010,07,18,03,55,11.20
2010,07,18,03,56,11.20
2010,07,18,03,57,11.30
2010,07,18,03,58,11.20
2010,07,18,03,59,11.20
2010,07,18,04,00,11.20
2010,07,18,04,01,11.20
2010,07,18,04,02,11.20
2010,07,18,04,03,11.20
2010,07,18,04,04,11.20
2010,07,18,04,05,11.20
2010,07,18,04,06,11.20
2010,07,18,04,07,11.20
2010,07,18,04,08,11.20
2010,07,18,04,09,11.20
2010,07,18,04,10,11.20
2010,07,18,04,11,11.20
2010,07,18,04,12,11.20
2010,07,18,04,13,11.20
2010,07,18,04,14,11.20
2010,07,18,04,15,11.20
2010,07,18,04,16,11.20
2010,07,18,04,17,11.10
2010,07,18,04,18,11.10
2010,07,18,04,19,11.10
2010,07,18,04,20,11.10
2010,07,18,04,21,11.10
2010,07,18,04,22,11.10
2010,07,18,04,23,11.10
2010,07,18,04,24,11.10
2010,07,18,04,25,11.00
2010,07,18,04,26,11.00
2010,07,18,04,27,11.00
2010,07,18,04,28,11.00
2010,07,18,04,29,10.90
2010,07,18,04,30,10.90
2010,07,18,04,31,10.90
2010,07,18,04,32,10.90
2010,07,18,04,33,10.90
2010,07,18,04,34,10.90
2010,07,18,04,35,10.90
2010,07,18,04,36,10.90
2010,07,18,04,37,11.00
2010,07,18,04,38,10.90
2010,07,18,04,39,10.90
2010,07,18,04,40,10.90
2010,07,18,04,41,10.90
2010,07,18,04,42,10.90
2010,07,18,04,43,10.90
2010,07,18,04,44,10.90
2010,07,18,04,45,10.90
2010,07,18,04,46,10.90
2010,07,18,04,47,10.90
2010,07,18,04,48,10.90
2010,07,18,04,49,10.90
2010,07,18,04,50,10.90
2010,07,18,04,51,10.90
2010,07,18,04,52,10.90
2010,07,18,04,53,10.90
2010,07,18,04,54,10.90
2010,07,18,04,55,10.90
2010,07,18,04,56,10.90
2010,07,18,04,57,10.90
2010,07,18,04,58,10.80
2010,07,18,04,59,10.80
2010,07,18,05,00,10.80
2010,07,18,05,01,10.80
2010,07,18,05,02,10.80
2010,07,18,05,03,10.80
2010,07,18,05,04,10.80
2010,07,18,05,05,10.80
2010,07,18,05,06,10.80
2010,07,18,05,07,10.80
2010,07,18,05,08,10.80
2010,07,18,05,09,10.70
2010,07,18,05,10,10.70
2010,07,18,05,11,10.70
2010,07,18,05,12,10.70
2010,07,18,05,13,10.70
2010,07,18,05,14,10.70
2010,07,18,05,15,10.70
2010,07,18,05,16,10.70
2010,07,18,05,17,10.70
2010,07,18,05,18,10.70
2010,07,18,05,19,10.70
2010,07,18,05,20,10.60
2010,07,18,05,21,10.60
2010,07,18,05,22,10.60
2010,07,18,05,23,10.60
2010,07,18,05,24,10.60
2010,07,18,05,25,10.60
2010,07,18,05,26,10.60
2010,07,18,05,27,10.60
2010,07,18,05,28,10.60
2010,07,18,05,29,10.60
2010,07,18,05,30,10.60
2010,07,18,05,31,10.60
2010,07,18,05,32,10.60
2010,07,18,05,33,10.60
2010,07,18,05,34,10.60
2010,07,18,05,35,10.60
2010,07,18,05,36,10.60
2010,07,18,05,37,10.60
2010,07,18,05,38,10.60
2010,07,18,05,39,10.50
2010,07,18,05,40,10.50
2010,07,18,05,41,10.50
2010,07,18,05,42,10.50
2010,07,18,05,43,10.50
2010,07,18,05,44,10.50
2010,07,18,05,45,10.50
2010,07,18,05,46,10.40
2010,07,18,05,47,10.40
2010,07,18,05,48,10.40
2010,07,18,05,49,10.40
2010,07,18,05,50,10.40
2010,07,18,05,51,10.40
2010,07,18,05,52,10.40
2010,07,18,05,53,10.40
2010,07,18,05,54,10.40
2010,07,18,05,55,10.40
2010,07,18,05,56,10.40
2010,07,18,05,57,10.40
2010,07,18,05,58,10.40
2010,07,18,05,59,10.40
2010,07,18,06,00,10.40
2010,07,18,06,01,10.40
2010,07,18,06,02,10.40
2010,07,18,06,03,10.40
2010,07,18,06,04,10.40
2010,07,18,06,05,10.40
2010,07,18,06,06,10.40
2010,07,18,06,07,10.40
2010,07,18,06,08,10.40
2010,07,18,06,09,10.40
2010,07,18,06,10,10.40
2010,07,18,06,11,10.40
2010,07,18,06,12,10.40
2010,07,18,06,13,10.40
2010,07,18,06,14,10.50
2010,07,18,06,15,10.50
2010,07,18,06,16,10.50
2010,07,18,06,17,10.50
2010,07,18,06,18,10.60
2010,07,18,06,19,10.60
2010,07,18,06,20,10.60
2010,07,18,06,21,10.60
2010,07,18,06,22,10.60
2010,07,18,06,23,10.60
2010,07,18,06,24,10.70
2010,07,18,06,25,10.70
2010,07,18,06,26,10.80
2010,07,18,06,27,10.80
2010,07,18,06,28,10.80
2010,07,18,06,29,10.80
2010,07,18,06,30,10.80
2010,07,18,06,31,10.90
2010,07,18,06,32,10.90
2010,07,18,06,33,10.90
2010,07,18,06,34,10.90
2010,07,18,06,35,11.00
2010,07,18,06,36,11.00
2010,07,18,06,37,11.10
2010,07,18,06,38,11.10
2010,07,18,06,39,11.10
2010,07,18,06,40,11.20
2010,07,18,06,41,11.20
2010,07,18,06,42,11.30
2010,07,18,06,43,11.40
2010,07,18,06,44,11.50
2010,07,18,06,45,11.60
2010,07,18,06,46,11.60
2010,07,18,06,47,11.70
2010,07,18,06,48,11.70
2010,07,18,06,49,11.70
2010,07,18,06,50,11.70
2010,07,18,06,51,11.80
2010,07,18,06,52,11.80
2010,07,18,06,53,11.90
2010,07,18,06,54,12.00
2010,07,18,06,55,12.10
2010,07,18,06,56,12.10
2010,07,18,06,57,12.20
2010,07,18,06,58,12.20
2010,07,18,06,59,12.20
2010,07,18,07,00,12.30
2010,07,18,07,01,12.30
2010,07,18,07,02,12.30
2010,07,18,07,03,12.40
2010,07,18,07,04,12.40
2010,07,18,07,05,12.50
2010,07,18,07,06,12.50
2010,07,18,07,07,12.50
2010,07,18,07,08,12.60
2010,07,18,07,09,12.60
2010,07,18,07,10,12.60
2010,07,18,07,11,12.60
2010,07,18,07,12,12.70
2010,07,18,07,13,12.70
2010,07,18,07,14,12.80
2010,07,18,07,15,12.80
2010,07,18,07,16,12.80
2010,07,18,07,17,12.90
2010,07,18,07,18,13.00
2010,07,18,07,19,13.10
2010,07,18,07,20,13.20
2010,07,18,07,21,13.30
2010,07,18,07,22,13.40
2010,07,18,07,23,13.60
2010,07,18,07,24,13.70
2010,07,18,07,25,13.80
2010,07,18,07,26,13.90
2010,07,18,07,27,14.10
2010,07,18,07,28,14.20
2010,07,18,07,29,14.30
2010,07,18,07,30,14.40
2010,07,18,07,31,14.40
2010,07,18,07,32,14.50
2010,07,18,07,33,14.60
2010,07,18,07,34,14.60
2010,07,18,07,35,14.70
2010,07,18,07,36,14.90
2010,07,18,07,37,15.00
2010,07,18,07,38,15.10
2010,07,18,07,39,15.30
2010,07,18,07,40,15.50
2010,07,18,07,41,15.60
2010,07,18,07,42,15.80
2010,07,18,07,43,15.90
2010,07,18,07,44,16.00
2010,07,18,07,45,16.10
2010,07,18,07,46,16.10
2010,07,18,07,47,16.10
2010,07,18,07,48,16.10
2010,07,18,07,49,16.00
2010,07,18,07,50,15.90
2010,07,18,07,51,15.80
2010,07,18,07,52,15.80
2010,07,18,07,53,15.80
2010,07,18,07,54,15.80
2010,07,18,07,55,15.70
2010,07,18,07,56,15.60
2010,07,18,07,57,15.60
2010,07,18,07,58,15.50
2010,07,18,07,59,15.50
2010,07,18,08,00,15.60
2010,07,18,08,01,15.60
2010,07,18,08,02,15.50
2010,07,18,08,03,15.50
2010,07,18,08,04,15.50
2010,07,18,08,05,15.50
2010,07,18,08,06,15.50
2010,07,18,08,07,15.40
2010,07,18,08,08,15.40
2010,07,18,08,09,15.30
2010,07,18,08,10,15.30
2010,07,18,08,11,15.40
2010,07,18,08,12,15.40
2010,07,18,08,13,15.40
2010,07,18,08,14,15.40
2010,07,18,08,15,15.30
2010,07,18,08,16,15.30
2010,07,18,08,17,15.30
2010,07,18,08,18,15.30
2010,07,18,08,19,15.30
2010,07,18,08,20,15.30
2010,07,18,08,21,15.30
2010,07,18,08,22,15.30
2010,07,18,08,23,15.30
2010,07,18,08,24,15.40
2010,07,18,08,25,15.40
2010,07,18,08,26,15.50
2010,07,18,08,27,15.60
2010,07,18,08,28,15.60
2010,07,18,08,29,15.70
2010,07,18,08,30,15.80
2010,07,18,08,31,15.90
2010,07,18,08,32,16.10
2010,07,18,08,33,16.20
2010,07,18,08,34,16.30
2010,07,18,08,35,16.40
2010,07,18,08,36,16.50
2010,07,18,08,37,16.60
2010,07,18,08,38,16.60
2010,07,18,08,39,16.70
2010,07,18,08,40,16.80
2010,07,18,08,41,16.90
2010,07,18,08,42,17.00
2010,07,18,08,43,17.10
2010,07,18,08,44,17.10
2010,07,18,08,45,17.20
2010,07,18,08,46,17.20
2010,07,18,08,47,17.20
2010,07,18,08,48,17.20
2010,07,18,08,49,17.30
2010,07,18,08,50,17.30
2010,07,18,08,51,17.30
2010,07,18,08,52,17.40
2010,07,18,08,53,17.50
2010,07,18,08,54,17.50
2010,07,18,08,55,17.60
2010,07,18,08,56,17.60
2010,07,18,08,57,17.60
2010,07,18,08,58,17.60
2010,07,18,08,59,17.60
2010,07,18,09,00,17.60
2010,07,18,09,01,17.60
2010,07,18,09,02,17.60
2010,07,18,09,03,17.60
2010,07,18,09,04,17.60
2010,07,18,09,05,17.60
2010,07,18,09,06,17.60
2010,07,18,09,07,17.60
2010,07,18,09,08,17.50
2010,07,18,09,09,17.50
2010,07,18,09,10,17.40
2010,07,18,09,11,17.50
2010,07,18,09,12,17.50
2010,07,18,09,13,17.60
2010,07,18,09,14,17.60
2010,07,18,09,15,17.60
2010,07,18,09,16,17.60
2010,07,18,09,17,17.60
2010,07,18,09,18,17.60
2010,07,18,09,19,17.60
2010,07,18,09,20,17.50
2010,07,18,09,21,17.50
2010,07,18,09,22,17.40
2010,07,18,09,23,17.40
2010,07,18,09,24,17.30
2010,07,18,09,25,17.30
2010,07,18,09,26,17.20
2010,07,18,09,27,17.20
2010,07,18,09,28,17.20
2010,07,18,09,29,17.10
2010,07,18,09,30,17.10
2010,07,18,09,31,17.10
2010,07,18,09,32,17.10
2010,07,18,09,33,17.10
2010,07,18,09,34,17.00
2010,07,18,09,35,17.10
2010,07,18,09,36,17.10
2010,07,18,09,37,17.10
2010,07,18,09,38,17.10
2010,07,18,09,39,17.10
2010,07,18,09,40,17.10
2010,07,18,09,41,17.10
2010,07,18,09,42,17.20
2010,07,18,09,43,17.10
2010,07,18,09,44,17.10
2010,07,18,09,45,17.20
2010,07,18,09,46,17.20
2010,07,18,09,47,17.30
2010,07,18,09,48,17.30
2010,07,18,09,49,17.20
2010,07,18,09,50,17.20
2010,07,18,09,51,17.30
2010,07,18,09,52,17.30
2010,07,18,09,53,17.30
2010,07,18,09,54,17.40
2010,07,18,09,55,17.50
2010,07,18,09,56,17.60
2010,07,18,09,57,17.70
2010,07,18,09,58,17.70
2010,07,18,09,59,17.70
2010,07,18,10,00,17.70
2010,07,18,10,01,17.70
2010,07,18,10,02,17.80
2010,07,18,10,03,17.90
2010,07,18,10,04,18.00
2010,07,18,10,05,18.20
2010,07,18,10,06,18.30
2010,07,18,10,07,18.40
2010,07,18,10,08,18.40
2010,07,18,10,09,18.40
2010,07,18,10,10,18.40
2010,07,18,10,11,18.30
2010,07,18,10,12,18.30
2010,07,18,10,13,18.20
2010,07,18,10,14,18.10
2010,07,18,10,15,18.10
2010,07,18,10,16,18.10
2010,07,18,10,17,18.00
2010,07,18,10,18,17.90
2010,07,18,10,19,17.80
2010,07,18,10,20,17.80
2010,07,18,10,21,17.90
2010,07,18,10,22,18.10
2010,07,18,10,23,18.20
2010,07,18,10,24,18.20
2010,07,18,10,25,18.30
2010,07,18,10,26,18.40
2010,07,18,10,27,18.50
2010,07,18,10,28,18.60
2010,07,18,10,29,18.60
2010,07,18,10,30,18.60
2010,07,18,10,31,18.60
2010,07,18,10,32,18.50
2010,07,18,10,33,18.50
2010,07,18,10,34,18.50
2010,07,18,10,35,18.60
2010,07,18,10,36,18.60
2010,07,18,10,37,18.60
2010,07,18,10,38,18.60
2010,07,18,10,39,18.50
2010,07,18,10,40,18.40
2010,07,18,10,41,18.40
2010,07,18,10,42,18.40
2010,07,18,10,43,18.50
2010,07,18,10,44,18.60
2010,07,18,10,45,18.50
2010,07,18,10,46,18.50
2010,07,18,10,47,18.50
2010,07,18,10,48,18.60
2010,07,18,10,49,18.60
2010,07,18,10,50,18.70
2010,07,18,10,51,18.60
2010,07,18,10,52,18.60
2010,07,18,10,53,18.60
2010,07,18,10,54,18.60
2010,07,18,10,55,18.50
2010,07,18,10,56,18.40
2010,07,18,10,57,18.30
2010,07,18,10,58,18.30
2010,07,18,10,59,18.20
2010,07,18,11,00,18.20
2010,07,18,11,01,18.20
2010,07,18,11,02,18.20
2010,07,18,11,03,18.30
2010,07,18,11,04,18.30
2010,07,18,11,05,18.40
2010,07,18,11,06,18.50
2010,07,18,11,07,18.50
2010,07,18,11,08,18.60
2010,07,18,11,09,18.50
2010,07,18,11,10,18.40
2010,07,18,11,11,18.40
2010,07,18,11,12,18.40
2010,07,18,11,13,18.40
2010,07,18,11,14,18.40
2010,07,18,11,15,18.40
2010,07,18,11,16,18.30
2010,07,18,11,17,18.30
2010,07,18,11,18,18.30
2010,07,18,11,19,18.30
2010,07,18,11,20,18.30
2010,07,18,11,21,18.30
2010,07,18,11,22,18.40
2010,07,18,11,23,18.40
2010,07,18,11,24,18.40
2010,07,18,11,25,18.40
2010,07,18,11,26,18.50
2010,07,18,11,27,18.40
2010,07,18,11,28,18.30
2010,07,18,11,29,18.20
2010,07,18,11,30,18.20
2010,07,18,11,31,18.20
2010,07,18,11,32,18.10
2010,07,18,11,33,18.10
2010,07,18,11,34,18.10
2010,07,18,11,35,18.10
2010,07,18,11,36,17.90
2010,07,18,11,37,17.90
2010,07,18,11,38,17.90
2010,07,18,11,39,17.90
2010,07,18,11,40,17.80
2010,07,18,11,41,17.80
2010,07,18,11,42,17.80
2010,07,18,11,43,17.80
2010,07,18,11,44,17.80
2010,07,18,11,45,17.90
2010,07,18,11,46,17.90
2010,07,18,11,47,17.90
2010,07,18,11,48,18.00
2010,07,18,11,49,18.20
2010,07,18,11,50,18.20
2010,07,18,11,51,18.20
2010,07,18,11,52,18.30
2010,07,18,11,53,18.30
2010,07,18,11,54,18.40
2010,07,18,11,55,18.50
2010,07,18,11,56,18.60
2010,07,18,11,57,18.70
2010,07,18,11,58,18.70
2010,07,18,11,59,18.80
2010,07,18,12,00,18.90
2010,07,18,12,01,19.00
2010,07,18,12,02,19.00
2010,07,18,12,03,18.90
2010,07,18,12,04,18.80
2010,07,18,12,05,18.70
2010,07,18,12,06,18.70
2010,07,18,12,07,18.70
2010,07,18,12,08,18.70
2010,07,18,12,09,18.70
2010,07,18,12,10,18.80
2010,07,18,12,11,18.80
2010,07,18,12,12,18.90
2010,07,18,12,13,18.80
2010,07,18,12,14,18.80
2010,07,18,12,15,18.80
2010,07,18,12,16,18.70
2010,07,18,12,17,18.70
2010,07,18,12,18,18.70
2010,07,18,12,19,18.70
2010,07,18,12,20,18.60
2010,07,18,12,21,18.70
2010,07,18,12,22,18.70
2010,07,18,12,23,18.80
2010,07,18,12,24,18.80
2010,07,18,12,25,18.90
2010,07,18,12,26,18.90
2010,07,18,12,27,19.00
2010,07,18,12,28,19.10
2010,07,18,12,29,19.10
2010,07,18,12,30,19.10
2010,07,18,12,31,19.10
2010,07,18,12,32,19.10
2010,07,18,12,33,19.20
2010,07,18,12,34,19.20
2010,07,18,12,35,19.10
2010,07,18,12,36,19.10
2010,07,18,12,37,19.20
2010,07,18,12,38,19.20
2010,07,18,12,39,19.20
2010,07,18,12,40,19.10
2010,07,18,12,41,19.10
2010,07,18,12,42,19.10
2010,07,18,12,43,19.20
2010,07,18,12,44,19.30
2010,07,18,12,45,19.30
2010,07,18,12,46,19.20
2010,07,18,12,47,19.20
2010,07,18,12,48,19.20
2010,07,18,12,49,19.20
2010,07,18,12,50,19.10
2010,07,18,12,51,19.10
2010,07,18,12,52,19.10
2010,07,18,12,53,19.10
2010,07,18,12,54,19.20
2010,07,18,12,55,19.30
2010,07,18,12,56,19.40
2010,07,18,12,57,19.50
2010,07,18,12,58,19.60
2010,07,18,12,59,19.70
2010,07,18,13,00,19.70
2010,07,18,13,01,19.70
2010,07,18,13,02,19.70
2010,07,18,13,03,19.60
2010,07,18,13,04,19.60
2010,07,18,13,05,19.50
2010,07,18,13,06,19.40
2010,07,18,13,07,19.30
2010,07,18,13,08,19.20
2010,07,18,13,09,19.20
2010,07,18,13,10,19.10
2010,07,18,13,11,19.10
2010,07,18,13,12,19.10
2010,07,18,13,13,19.10
2010,07,18,13,14,19.00
2010,07,18,13,15,19.00
2010,07,18,13,16,18.90
2010,07,18,13,17,18.90
2010,07,18,13,18,19.00
2010,07,18,13,19,19.10
2010,07,18,13,20,19.20
2010,07,18,13,21,19.20
2010,07,18,13,22,19.20
2010,07,18,13,23,19.30
2010,07,18,13,24,19.30
2010,07,18,13,25,19.30
2010,07,18,13,26,19.30
2010,07,18,13,27,19.20
2010,07,18,13,28,19.20
2010,07,18,13,29,19.10
2010,07,18,13,30,19.00
2010,07,18,13,31,18.90
2010,07,18,13,32,19.10
2010,07,18,13,33,19.10
2010,07,18,13,34,19.10
2010,07,18,13,35,19.20
2010,07,18,13,36,19.20
2010,07,18,13,37,19.30
2010,07,18,13,38,19.30
2010,07,18,13,39,19.30
2010,07,18,13,40,19.30
2010,07,18,13,41,19.30
2010,07,18,13,42,19.30
2010,07,18,13,43,19.40
2010,07,18,13,44,19.40
2010,07,18,13,45,19.50
2010,07,18,13,46,19.50
2010,07,18,13,47,19.60
2010,07,18,13,48,19.50
2010,07,18,13,49,19.30
2010,07,18,13,50,19.30
2010,07,18,13,51,19.20
2010,07,18,13,52,19.20
2010,07,18,13,53,19.30
2010,07,18,13,54,19.50
2010,07,18,13,55,19.60
2010,07,18,13,56,19.60
2010,07,18,13,57,19.50
2010,07,18,13,58,19.60
2010,07,18,13,59,19.70
2010,07,18,14,00,19.70
2010,07,18,14,01,19.70
2010,07,18,14,02,19.60
2010,07,18,14,03,19.60
2010,07,18,14,04,19.70
2010,07,18,14,05,19.70
2010,07,18,14,06,19.70
2010,07,18,14,07,19.70
2010,07,18,14,08,19.70
2010,07,18,14,09,19.70
2010,07,18,14,10,19.70
2010,07,18,14,11,19.60
2010,07,18,14,12,19.40
2010,07,18,14,13,19.40
2010,07,18,14,14,19.50
2010,07,18,14,15,19.40
2010,07,18,14,16,19.40
2010,07,18,14,17,19.40
2010,07,18,14,18,19.50
2010,07,18,14,19,19.50
2010,07,18,14,20,19.60
2010,07,18,14,21,19.70
2010,07,18,14,22,19.70
2010,07,18,14,23,19.70
2010,07,18,14,24,19.70
2010,07,18,14,25,19.60
2010,07,18,14,26,19.60
2010,07,18,14,27,19.50
2010,07,18,14,28,19.50
2010,07,18,14,29,19.60
2010,07,18,14,30,19.60
2010,07,18,14,31,19.60
2010,07,18,14,32,19.50
2010,07,18,14,33,19.50
2010,07,18,14,34,19.60
2010,07,18,14,35,19.60
2010,07,18,14,36,19.60
2010,07,18,14,37,19.60
2010,07,18,14,38,19.50
2010,07,18,14,39,19.40
2010,07,18,14,40,19.30
2010,07,18,14,41,19.40
2010,07,18,14,42,19.50
2010,07,18,14,43,19.50
2010,07,18,14,44,19.40
2010,07,18,14,45,19.50
2010,07,18,14,46,19.60
2010,07,18,14,47,19.60
2010,07,18,14,48,19.60
2010,07,18,14,49,19.60
2010,07,18,14,50,19.50
2010,07,18,14,51,19.50
2010,07,18,14,52,19.40
2010,07,18,14,53,19.40
2010,07,18,14,54,19.30
2010,07,18,14,55,19.30
2010,07,18,14,56,19.30
2010,07,18,14,57,19.30
2010,07,18,14,58,19.30
2010,07,18,14,59,19.30
2010,07,18,15,00,19.30
2010,07,18,15,01,19.30
2010,07,18,15,02,19.30
2010,07,18,15,03,19.20
2010,07,18,15,04,19.30
2010,07,18,15,05,19.30
2010,07,18,15,06,19.40
2010,07,18,15,07,19.50
2010,07,18,15,08,19.50
2010,07,18,15,09,19.50
2010,07,18,15,10,19.60
2010,07,18,15,11,19.80
2010,07,18,15,12,19.80
2010,07,18,15,13,19.90
2010,07,18,15,14,20.00
2010,07,18,15,15,20.10
2010,07,18,15,16,20.20
2010,07,18,15,17,20.10
2010,07,18,15,18,20.00
2010,07,18,15,19,20.00
2010,07,18,15,20,19.90
2010,07,18,15,21,19.80
2010,07,18,15,22,19.60
2010,07,18,15,23,19.50
2010,07,18,15,24,19.60
2010,07,18,15,25,19.60
2010,07,18,15,26,19.70
2010,07,18,15,27,19.80
2010,07,18,15,28,19.80
2010,07,18,15,29,19.90
2010,07,18,15,30,19.90
2010,07,18,15,31,19.80
2010,07,18,15,32,19.70
2010,07,18,15,33,19.60
2010,07,18,15,34,19.50
2010,07,18,15,35,19.50
2010,07,18,15,36,19.60
2010,07,18,15,37,19.70
2010,07,18,15,38,19.70
2010,07,18,15,39,19.80
2010,07,18,15,40,19.80
2010,07,18,15,41,19.80
2010,07,18,15,42,19.90
2010,07,18,15,43,19.90
2010,07,18,15,44,19.90
2010,07,18,15,45,19.80
2010,07,18,15,46,19.80
2010,07,18,15,47,19.70
2010,07,18,15,48,19.70
2010,07,18,15,49,19.60
2010,07,18,15,50,19.60
2010,07,18,15,51,19.60
2010,07,18,15,52,19.60
2010,07,18,15,53,19.70
2010,07,18,15,54,19.70
2010,07,18,15,55,19.80
2010,07,18,15,56,19.80
2010,07,18,15,57,19.80
2010,07,18,15,58,19.80
2010,07,18,15,59,19.80
2010,07,18,16,00,19.80
2010,07,18,16,01,19.70
2010,07,18,16,02,19.60
2010,07,18,16,03,19.60
2010,07,18,16,04,19.60
2010,07,18,16,05,19.70
2010,07,18,16,06,19.80
2010,07,18,16,07,19.90
2010,07,18,16,08,19.90
2010,07,18,16,09,19.90
2010,07,18,16,10,19.80
2010,07,18,16,11,19.70
2010,07,18,16,12,19.60
2010,07,18,16,13,19.50
2010,07,18,16,14,19.40
2010,07,18,16,15,19.30
2010,07,18,16,16,19.30
2010,07,18,16,17,19.20
2010,07,18,16,18,19.20
2010,07,18,16,19,19.10
2010,07,18,16,20,19.00
2010,07,18,16,21,18.90
2010,07,18,16,22,18.90
2010,07,18,16,23,18.90
2010,07,18,16,24,18.90
2010,07,18,16,25,18.90
2010,07,18,16,26,18.90
2010,07,18,16,27,18.80
2010,07,18,16,28,18.80
2010,07,18,16,29,18.90
2010,07,18,16,30,19.00
2010,07,18,16,31,19.10
2010,07,18,16,32,19.10
2010,07,18,16,33,19.10
2010,07,18,16,34,19.20
2010,07,18,16,35,19.20
2010,07,18,16,36,19.20
2010,07,18,16,37,19.20
2010,07,18,16,38,19.20
2010,07,18,16,39,19.20
2010,07,18,16,40,19.20
2010,07,18,16,41,19.20
2010,07,18,16,42,19.20
2010,07,18,16,43,19.20
2010,07,18,16,44,19.20
2010,07,18,16,45,19.20
2010,07,18,16,46,19.20
2010,07,18,16,47,19.30
2010,07,18,16,48,19.30
2010,07,18,16,49,19.30
2010,07,18,16,50,19.30
2010,07,18,16,51,19.30
2010,07,18,16,52,19.30
2010,07,18,16,53,19.40
2010,07,18,16,54,19.50
2010,07,18,16,55,19.50
2010,07,18,16,56,19.70
2010,07,18,16,57,19.80
2010,07,18,16,58,19.80
2010,07,18,16,59,19.80
2010,07,18,17,00,19.80
2010,07,18,17,01,19.80
2010,07,18,17,02,19.90
2010,07,18,17,03,19.80
2010,07,18,17,04,19.70
2010,07,18,17,05,19.50
2010,07,18,17,06,19.40
2010,07,18,17,07,19.30
2010,07,18,17,08,19.20
2010,07,18,17,09,19.20
2010,07,18,17,10,19.20
2010,07,18,17,11,19.20
2010,07,18,17,12,19.20
2010,07,18,17,13,19.20
2010,07,18,17,14,19.20
2010,07,18,17,15,19.20
2010,07,18,17,16,19.20
2010,07,18,17,17,19.20
2010,07,18,17,18,19.30
2010,07,18,17,19,19.30
2010,07,18,17,20,19.40
2010,07,18,17,21,19.50
2010,07,18,17,22,19.50